Location: Atherton
(17.2661°S, 145.4859°E)
Time: 22:34:09
(UTC+10:00)

Hubble Space Telescope - Pass Details

Date: 24 May 2025
Orbit: 488 x 491 km, 28.5° (Epoch: 15 June)

Event Time Altitude Azimuth Distance (km) Brightness Sun altitude
Rises 18:16:37 0° 238° (WSW) 2,564 4.8 -6.4°
Reaches altitude 10° 18:18:59 10° 227° (SW) 1,681 3.7 -7.0°
Maximum altitude 18:22:30 32° 162° (SSE) 852 1.5 -7.8°
Enters shadow 18:25:56 11° 98° (E) 1,646 2.6 -8.5°
